owner,sensor,date,latitude,longitude,relative_humidity,qcFlag 
LUMCON,ioos:station:LUMCON:105:1,2009-12-01T00:00:00Z,29.1874,-90.6654,90.7,1111122 
LUMCON,ioos:station:LUMCON:105:1,2009-12-01T01:00:00Z,29.1874,-90.6654,88.9,1111122 
LUMCON,ioos:station:LUMCON:105:1,2009-12-01T02:00:00Z,29.1874,-90.6654,84.2,1111122 
LUMCON,ioos:station:LUMCON:105:1,2009-12-01T03:00:00Z,29.1874,-90.6654,84.2,1111122 
LUMCON,ioos:station:LUMCON:105:1,2009-12-01T04:00:00Z,29.1874,-90.6654,83.0,1111122 
LUMCON,ioos:station:LUMCON:105:1,2009-12-01T05:00:00Z,29.1874,-90.6654,83.0,1111122 
LUMCON,ioos:station:LUMCON:105:1,2009-12-01T06:00:00Z,29.1874,-90.6654,83.5,1111122 
LUMCON,ioos:station:LUMCON:105:1,2009-12-01T07:00:00Z,29.1874,-90.6654,85.2,1111122 
LUMCON,ioos:station:LUMCON:105:1,2009-12-01T08:00:00Z,29.1874,-90.6654,85.2,1111122 
LUMCON,ioos:station:LUMCON:105:1,2009-12-01T09:00:00Z,29.1874,-90.6654,86.3,1111122 
LUMCON,ioos:station:LUMCON:105:1,2009-12-01T10:00:00Z,29.1874,-90.6654,85.7,1111122 
LUMCON,ioos:station:LUMCON:105:1,2009-12-01T11:00:00Z,29.1874,-90.6654,85.7,1111122 
LUMCON,ioos:station:LUMCON:105:1,2009-12-01T12:00:00Z,29.1874,-90.6654,88.6,1111122 
LUMCON,ioos:station:LUMCON:105:1,2009-12-01T13:00:00Z,29.1874,-90.6654,89.2,1111122 
LUMCON,ioos:station:LUMCON:105:1,2009-12-01T14:00:00Z,29.1874,-90.6654,89.9,1111122 
LUMCON,ioos:station:LUMCON:105:1,2009-12-01T15:00:00Z,29.1874,-90.6654,90.5,1111122 
LUMCON,ioos:station:LUMCON:105:1,2009-12-01T16:00:00Z,29.1874,-90.6654,92.3,1111122 
LUMCON,ioos:station:LUMCON:105:1,2009-12-01T17:00:00Z,29.1874,-90.6654,93.5,1111122 
LUMCON,ioos:station:LUMCON:105:1,2009-12-01T18:00:00Z,29.1874,-90.6654,94.2,1111122 
LUMCON,ioos:station:LUMCON:105:1,2009-12-01T19:00:00Z,29.1874,-90.6654,95.5,1111122 
LUMCON,ioos:station:LUMCON:105:1,2009-12-01T20:00:00Z,29.1874,-90.6654,95.5,1111122 
LUMCON,ioos:station:LUMCON:105:1,2009-12-01T21:00:00Z,29.1874,-90.6654,96.1,1111122 
LUMCON,ioos:station:LUMCON:105:1,2009-12-01T22:00:00Z,29.1874,-90.6654,96.1,1111122 
LUMCON,ioos:station:LUMCON:105:1,2009-12-01T23:00:00Z,29.1874,-90.6654,96.1,1111122 
LUMCON,ioos:station:LUMCON:105:1,2009-12-02T00:00:00Z,29.1874,-90.6654,96.1,1111122 
LUMCON,ioos:station:LUMCON:105:1,2009-12-02T01:00:00Z,29.1874,-90.6654,93.0,1111122 
LUMCON,ioos:station:LUMCON:105:1,2009-12-02T02:00:00Z,29.1874,-90.6654,91.9,1111122 
LUMCON,ioos:station:LUMCON:105:1,2009-12-02T03:00:00Z,29.1874,-90.6654,90.7,1111122 
LUMCON,ioos:station:LUMCON:105:1,2009-12-02T04:00:00Z,29.1874,-90.6654,91.3,1111122 
LUMCON,ioos:station:LUMCON:105:1,2009-12-02T05:00:00Z,29.1874,-90.6654,91.9,1111122 
LUMCON,ioos:station:LUMCON:105:1,2009-12-02T06:00:00Z,29.1874,-90.6654,91.9,1111122 
LUMCON,ioos:station:LUMCON:105:1,2009-12-02T07:00:00Z,29.1874,-90.6654,93.7,1111122 
LUMCON,ioos:station:LUMCON:105:1,2009-12-02T08:00:00Z,29.1874,-90.6654,95.0,1111122 
LUMCON,ioos:station:LUMCON:105:1,2009-12-02T09:00:00Z,29.1874,-90.6654,96.2,1111122 
LUMCON,ioos:station:LUMCON:105:1,2009-12-02T10:00:00Z,29.1874,-90.6654,93.7,1111122 
LUMCON,ioos:station:LUMCON:105:1,2009-12-02T11:00:00Z,29.1874,-90.6654,93.7,1111122 
LUMCON,ioos:station:LUMCON:105:1,2009-12-02T12:00:00Z,29.1874,-90.6654,94.9,1111122 
LUMCON,ioos:station:LUMCON:105:1,2009-12-02T13:00:00Z,29.1874,-90.6654,94.9,1111122 
LUMCON,ioos:station:LUMCON:105:1,2009-12-02T15:00:00Z,29.1874,-90.6654,91.8,1111122 
LUMCON,ioos:station:LUMCON:105:1,2009-12-02T16:00:00Z,29.1874,-90.6654,92.5,1111122 
LUMCON,ioos:station:LUMCON:105:1,2009-12-02T17:00:00Z,29.1874,-90.6654,90.7,1111122 
LUMCON,ioos:station:LUMCON:105:1,2009-12-02T18:00:00Z,29.1874,-90.6654,86.8,1111122 
LUMCON,ioos:station:LUMCON:105:1,2009-12-02T19:00:00Z,29.1874,-90.6654,74.8,1111122 
LUMCON,ioos:station:LUMCON:105:1,2009-12-02T20:00:00Z,29.1874,-90.6654,72.2,1111122 
LUMCON,ioos:station:LUMCON:105:1,2009-12-02T21:00:00Z,29.1874,-90.6654,75.4,1111122 
LUMCON,ioos:station:LUMCON:105:1,2009-12-02T22:00:00Z,29.1874,-90.6654,73.2,1111122 
LUMCON,ioos:station:LUMCON:105:1,2009-12-02T23:00:00Z,29.1874,-90.6654,76.6,1111122 
LUMCON,ioos:station:LUMCON:105:1,2009-12-03T00:00:00Z,29.1874,-90.6654,76.5,1111122 
LUMCON,ioos:station:LUMCON:105:1,2009-12-03T01:00:00Z,29.1874,-90.6654,75.4,1111122 
LUMCON,ioos:station:LUMCON:105:1,2009-12-03T02:00:00Z,29.1874,-90.6654,76.4,1111122 
LUMCON,ioos:station:LUMCON:105:1,2009-12-03T03:00:00Z,29.1874,-90.6654,77.9,1111122 
LUMCON,ioos:station:LUMCON:105:1,2009-12-03T05:00:00Z,29.1874,-90.6654,78.9,1111122 
LUMCON,ioos:station:LUMCON:105:1,2009-12-03T06:00:00Z,29.1874,-90.6654,82.7,1111122 
LUMCON,ioos:station:LUMCON:105:1,2009-12-03T07:00:00Z,29.1874,-90.6654,86.1,1111122 
LUMCON,ioos:station:LUMCON:105:1,2009-12-03T08:00:00Z,29.1874,-90.6654,84.4,1111122 
LUMCON,ioos:station:LUMCON:105:1,2009-12-03T20:00:00Z,29.1874,-90.6654,70.0,1111122 
LUMCON,ioos:station:LUMCON:105:1,2009-12-03T23:00:00Z,29.1874,-90.6654,67.8,1111122 
LUMCON,ioos:station:LUMCON:105:1,2009-12-04T01:00:00Z,29.1874,-90.6654,77.9,1111122 
LUMCON,ioos:station:LUMCON:105:1,2009-12-04T02:00:00Z,29.1874,-90.6654,80.6,1111122 
LUMCON,ioos:station:LUMCON:105:1,2009-12-04T03:00:00Z,29.1874,-90.6654,80.5,1111122 
LUMCON,ioos:station:LUMCON:105:1,2009-12-04T04:00:00Z,29.1874,-90.6654,83.8,1111122 
LUMCON,ioos:station:LUMCON:105:1,2009-12-04T05:00:00Z,29.1874,-90.6654,85.6,1111122 
LUMCON,ioos:station:LUMCON:105:1,2009-12-04T06:00:00Z,29.1874,-90.6654,85.0,1111122 
LUMCON,ioos:station:LUMCON:105:1,2009-12-04T07:00:00Z,29.1874,-90.6654,85.5,1111122 
LUMCON,ioos:station:LUMCON:105:1,2009-12-06T17:00:00Z,29.1874,-90.6654,83.3,1111122 
LUMCON,ioos:station:LUMCON:105:1,2009-12-06T18:00:00Z,29.1874,-90.6654,83.4,1111122 
LUMCON,ioos:station:LUMCON:105:1,2009-12-06T19:00:00Z,29.1874,-90.6654,83.5,1111122 
LUMCON,ioos:station:LUMCON:105:1,2009-12-06T20:00:00Z,29.1874,-90.6654,83.0,1111122 
LUMCON,ioos:station:LUMCON:105:1,2009-12-06T21:00:00Z,29.1874,-90.6654,85.2,1111122 
LUMCON,ioos:station:LUMCON:105:1,2009-12-06T22:00:00Z,29.1874,-90.6654,89.9,1111122 
LUMCON,ioos:station:LUMCON:105:1,2009-12-06T23:00:00Z,29.1874,-90.6654,91.1,1111122 
LUMCON,ioos:station:LUMCON:105:1,2009-12-07T00:00:00Z,29.1874,-90.6654,91.1,1111122 
LUMCON,ioos:station:LUMCON:105:1,2009-12-07T01:00:00Z,29.1874,-90.6654,91.2,1111122 
LUMCON,ioos:station:LUMCON:105:1,2009-12-07T02:00:00Z,29.1874,-90.6654,92.4,1111122 
LUMCON,ioos:station:LUMCON:105:1,2009-12-07T03:00:00Z,29.1874,-90.6654,93.0,1111122 
LUMCON,ioos:station:LUMCON:105:1,2009-12-07T04:00:00Z,29.1874,-90.6654,94.3,1111122 
LUMCON,ioos:station:LUMCON:105:1,2009-12-07T06:00:00Z,29.1874,-90.6654,95.5,1111122 
LUMCON,ioos:station:LUMCON:105:1,2009-12-07T07:00:00Z,29.1874,-90.6654,96.2,1111122 
LUMCON,ioos:station:LUMCON:105:1,2009-12-07T14:00:00Z,29.1874,-90.6654,97.4,1111122 
LUMCON,ioos:station:LUMCON:105:1,2009-12-07T16:00:00Z,29.1874,-90.6654,96.2,1111122 
LUMCON,ioos:station:LUMCON:105:1,2009-12-07T17:00:00Z,29.1874,-90.6654,96.8,1111122 
LUMCON,ioos:station:LUMCON:105:1,2009-12-07T18:00:00Z,29.1874,-90.6654,96.8,1111122 
LUMCON,ioos:station:LUMCON:105:1,2009-12-07T21:00:00Z,29.1874,-90.6654,96.2,1111122 
LUMCON,ioos:station:LUMCON:105:1,2009-12-08T13:00:00Z,29.1874,-90.6654,98.1,1111122 
LUMCON,ioos:station:LUMCON:105:1,2009-12-09T16:00:00Z,29.1874,-90.6654,85.0,1111122 
LUMCON,ioos:station:LUMCON:105:1,2009-12-09T17:00:00Z,29.1874,-90.6654,55.0,1111122 
LUMCON,ioos:station:LUMCON:105:1,2009-12-09T18:00:00Z,29.1874,-90.6654,60.2,1111122 
LUMCON,ioos:station:LUMCON:105:1,2009-12-09T19:00:00Z,29.1874,-90.6654,50.5,1111122 
LUMCON,ioos:station:LUMCON:105:1,2009-12-09T20:00:00Z,29.1874,-90.6654,42.2,1111122 
LUMCON,ioos:station:LUMCON:105:1,2009-12-09T21:00:00Z,29.1874,-90.6654,39.3,1111122 
LUMCON,ioos:station:LUMCON:105:1,2009-12-09T22:00:00Z,29.1874,-90.6654,43.1,1111122 
LUMCON,ioos:station:LUMCON:105:1,2009-12-09T23:00:00Z,29.1874,-90.6654,45.7,1111122 
LUMCON,ioos:station:LUMCON:105:1,2009-12-10T00:00:00Z,29.1874,-90.6654,48.4,1111122 
LUMCON,ioos:station:LUMCON:105:1,2009-12-10T01:00:00Z,29.1874,-90.6654,52.0,1111122 
LUMCON,ioos:station:LUMCON:105:1,2009-12-10T02:00:00Z,29.1874,-90.6654,53.6,1111122 
LUMCON,ioos:station:LUMCON:105:1,2009-12-10T03:00:00Z,29.1874,-90.6654,48.1,1111122 
LUMCON,ioos:station:LUMCON:105:1,2009-12-10T07:00:00Z,29.1874,-90.6654,64.1,1111122 
LUMCON,ioos:station:LUMCON:105:1,2009-12-16T22:00:00Z,29.1874,-90.6654,49.5,1111122 
LUMCON,ioos:station:LUMCON:105:1,2009-12-16T23:00:00Z,29.1874,-90.6654,51.1,1111122 
LUMCON,ioos:station:LUMCON:105:1,2009-12-17T00:00:00Z,29.1874,-90.6654,59.8,1111122 
LUMCON,ioos:station:LUMCON:105:1,2009-12-17T01:00:00Z,29.1874,-90.6654,59.7,1111122 
LUMCON,ioos:station:LUMCON:105:1,2009-12-17T02:00:00Z,29.1874,-90.6654,60.5,1111122 
LUMCON,ioos:station:LUMCON:105:1,2009-12-17T03:00:00Z,29.1874,-90.6654,56.0,1111122 
LUMCON,ioos:station:LUMCON:105:1,2009-12-17T04:00:00Z,29.1874,-90.6654,59.4,1111122 
LUMCON,ioos:station:LUMCON:105:1,2009-12-17T05:00:00Z,29.1874,-90.6654,62.3,1111122 
LUMCON,ioos:station:LUMCON:105:1,2009-12-17T06:00:00Z,29.1874,-90.6654,66.2,1111122 
LUMCON,ioos:station:LUMCON:105:1,2009-12-17T07:00:00Z,29.1874,-90.6654,69.0,1111122 
LUMCON,ioos:station:LUMCON:105:1,2009-12-17T08:00:00Z,29.1874,-90.6654,69.9,1111122 
LUMCON,ioos:station:LUMCON:105:1,2009-12-17T09:00:00Z,29.1874,-90.6654,71.7,1111122 
LUMCON,ioos:station:LUMCON:105:1,2009-12-17T10:00:00Z,29.1874,-90.6654,74.2,1111122 
LUMCON,ioos:station:LUMCON:105:1,2009-12-17T11:00:00Z,29.1874,-90.6654,76.7,1111122 
LUMCON,ioos:station:LUMCON:105:1,2009-12-17T12:00:00Z,29.1874,-90.6654,75.1,1111122 
LUMCON,ioos:station:LUMCON:105:1,2009-12-17T13:00:00Z,29.1874,-90.6654,76.7,1111122 
LUMCON,ioos:station:LUMCON:105:1,2009-12-17T14:00:00Z,29.1874,-90.6654,78.3,1111122 
LUMCON,ioos:station:LUMCON:105:1,2009-12-17T15:00:00Z,29.1874,-90.6654,79.3,1111122 
LUMCON,ioos:station:LUMCON:105:1,2009-12-17T16:00:00Z,29.1874,-90.6654,80.4,1111122 
LUMCON,ioos:station:LUMCON:105:1,2009-12-17T17:00:00Z,29.1874,-90.6654,86.7,1111122 
LUMCON,ioos:station:LUMCON:105:1,2009-12-17T18:00:00Z,29.1874,-90.6654,89.8,1111122 
LUMCON,ioos:station:LUMCON:105:1,2009-12-17T19:00:00Z,29.1874,-90.6654,92.9,1111122 
LUMCON,ioos:station:LUMCON:105:1,2009-12-17T20:00:00Z,29.1874,-90.6654,90.4,1111122 
LUMCON,ioos:station:LUMCON:105:1,2009-12-17T21:00:00Z,29.1874,-90.6654,96.7,1111122 
LUMCON,ioos:station:LUMCON:105:1,2009-12-17T22:00:00Z,29.1874,-90.6654,93.5,1111122 
LUMCON,ioos:station:LUMCON:105:1,2009-12-17T23:00:00Z,29.1874,-90.6654,94.8,1111122 
LUMCON,ioos:station:LUMCON:105:1,2009-12-18T00:00:00Z,29.1874,-90.6654,95.4,1111122 
LUMCON,ioos:station:LUMCON:105:1,2009-12-18T01:00:00Z,29.1874,-90.6654,95.4,1111122 
LUMCON,ioos:station:LUMCON:105:1,2009-12-18T02:00:00Z,29.1874,-90.6654,94.1,1111122 
LUMCON,ioos:station:LUMCON:105:1,2009-12-18T03:00:00Z,29.1874,-90.6654,94.1,1111122 
LUMCON,ioos:station:LUMCON:105:1,2009-12-18T04:00:00Z,29.1874,-90.6654,94.8,1111122 
LUMCON,ioos:station:LUMCON:105:1,2009-12-18T05:00:00Z,29.1874,-90.6654,96.0,1111122 
LUMCON,ioos:station:LUMCON:105:1,2009-12-18T06:00:00Z,29.1874,-90.6654,95.4,1111122 
LUMCON,ioos:station:LUMCON:105:1,2009-12-18T07:00:00Z,29.1874,-90.6654,94.7,1111122 
LUMCON,ioos:station:LUMCON:105:1,2009-12-18T08:00:00Z,29.1874,-90.6654,94.1,1111122 
LUMCON,ioos:station:LUMCON:105:1,2009-12-18T09:00:00Z,29.1874,-90.6654,93.4,1111122 
LUMCON,ioos:station:LUMCON:105:1,2009-12-18T10:00:00Z,29.1874,-90.6654,94.8,1111122 
LUMCON,ioos:station:LUMCON:105:1,2009-12-18T11:00:00Z,29.1874,-90.6654,95.4,1111122 
LUMCON,ioos:station:LUMCON:105:1,2009-12-18T12:00:00Z,29.1874,-90.6654,93.5,1111122 
LUMCON,ioos:station:LUMCON:105:1,2009-12-18T13:00:00Z,29.1874,-90.6654,93.5,1111122 
LUMCON,ioos:station:LUMCON:105:1,2009-12-18T14:00:00Z,29.1874,-90.6654,92.3,1111122 
LUMCON,ioos:station:LUMCON:105:1,2009-12-18T15:00:00Z,29.1874,-90.6654,88.1,1111122 
LUMCON,ioos:station:LUMCON:105:1,2009-12-18T16:00:00Z,29.1874,-90.6654,88.2,1111122 
LUMCON,ioos:station:LUMCON:105:1,2009-12-18T17:00:00Z,29.1874,-90.6654,87.6,1111122 
LUMCON,ioos:station:LUMCON:105:1,2009-12-18T18:00:00Z,29.1874,-90.6654,85.3,1111122 
LUMCON,ioos:station:LUMCON:105:1,2009-12-18T19:00:00Z,29.1874,-90.6654,83.6,1111122 
LUMCON,ioos:station:LUMCON:105:1,2009-12-18T20:00:00Z,29.1874,-90.6654,77.8,1111122 
LUMCON,ioos:station:LUMCON:105:1,2009-12-18T21:00:00Z,29.1874,-90.6654,72.9,1111122 
LUMCON,ioos:station:LUMCON:105:1,2009-12-18T22:00:00Z,29.1874,-90.6654,70.1,1111122 
LUMCON,ioos:station:LUMCON:105:1,2009-12-18T23:00:00Z,29.1874,-90.6654,72.0,1111122 
LUMCON,ioos:station:LUMCON:105:1,2009-12-19T00:00:00Z,29.1874,-90.6654,84.2,1111122 
LUMCON,ioos:station:LUMCON:105:1,2009-12-19T01:00:00Z,29.1874,-90.6654,84.7,1111122 
LUMCON,ioos:station:LUMCON:105:1,2009-12-19T02:00:00Z,29.1874,-90.6654,85.8,1111122 
LUMCON,ioos:station:LUMCON:105:1,2009-12-19T03:00:00Z,29.1874,-90.6654,84.1,1111122 
LUMCON,ioos:station:LUMCON:105:1,2009-12-19T04:00:00Z,29.1874,-90.6654,84.6,1111122 
LUMCON,ioos:station:LUMCON:105:1,2009-12-19T05:00:00Z,29.1874,-90.6654,79.6,1111122 
LUMCON,ioos:station:LUMCON:105:1,2009-12-19T06:00:00Z,29.1874,-90.6654,79.0,1111122 
LUMCON,ioos:station:LUMCON:105:1,2009-12-19T07:00:00Z,29.1874,-90.6654,81.1,1111122 
LUMCON,ioos:station:LUMCON:105:1,2009-12-19T08:00:00Z,29.1874,-90.6654,76.9,1111122 
LUMCON,ioos:station:LUMCON:105:1,2009-12-19T09:00:00Z,29.1874,-90.6654,76.7,1111122 
LUMCON,ioos:station:LUMCON:105:1,2009-12-19T10:00:00Z,29.1874,-90.6654,79.9,1111122 
LUMCON,ioos:station:LUMCON:105:1,2009-12-19T11:00:00Z,29.1874,-90.6654,79.8,1111122 
LUMCON,ioos:station:LUMCON:105:1,2009-12-19T12:00:00Z,29.1874,-90.6654,77.0,1111122 
LUMCON,ioos:station:LUMCON:105:1,2009-12-19T13:00:00Z,29.1874,-90.6654,76.4,1111122 
LUMCON,ioos:station:LUMCON:105:1,2009-12-19T14:00:00Z,29.1874,-90.6654,73.4,1111122 
LUMCON,ioos:station:LUMCON:105:1,2009-12-19T15:00:00Z,29.1874,-90.6654,64.7,1111122 
LUMCON,ioos:station:LUMCON:105:1,2009-12-19T16:00:00Z,29.1874,-90.6654,61.3,1111122 
LUMCON,ioos:station:LUMCON:105:1,2009-12-19T17:00:00Z,29.1874,-90.6654,53.1,1111122 
LUMCON,ioos:station:LUMCON:105:1,2009-12-19T18:00:00Z,29.1874,-90.6654,47.7,1111122 
LUMCON,ioos:station:LUMCON:105:1,2009-12-19T19:00:00Z,29.1874,-90.6654,44.7,1111122 
LUMCON,ioos:station:LUMCON:105:1,2009-12-19T20:00:00Z,29.1874,-90.6654,44.8,1111122 
LUMCON,ioos:station:LUMCON:105:1,2009-12-19T21:00:00Z,29.1874,-90.6654,45.6,1111122 
LUMCON,ioos:station:LUMCON:105:1,2009-12-19T22:00:00Z,29.1874,-90.6654,60.1,1111122 
LUMCON,ioos:station:LUMCON:105:1,2009-12-19T23:00:00Z,29.1874,-90.6654,68.3,1111122 
LUMCON,ioos:station:LUMCON:105:1,2009-12-20T00:00:00Z,29.1874,-90.6654,72.5,1111122 
LUMCON,ioos:station:LUMCON:105:1,2009-12-20T01:00:00Z,29.1874,-90.6654,77.0,1111122 
LUMCON,ioos:station:LUMCON:105:1,2009-12-20T02:00:00Z,29.1874,-90.6654,79.6,1111122 
LUMCON,ioos:station:LUMCON:105:1,2009-12-20T03:00:00Z,29.1874,-90.6654,84.0,1111122 
LUMCON,ioos:station:LUMCON:105:1,2009-12-20T04:00:00Z,29.1874,-90.6654,86.3,1111122 
LUMCON,ioos:station:LUMCON:105:1,2009-12-20T05:00:00Z,29.1874,-90.6654,85.1,1111122 
LUMCON,ioos:station:LUMCON:105:1,2009-12-20T06:00:00Z,29.1874,-90.6654,82.2,1111122 
LUMCON,ioos:station:LUMCON:105:1,2009-12-20T07:00:00Z,29.1874,-90.6654,75.7,1111122 
LUMCON,ioos:station:LUMCON:105:1,2009-12-20T08:00:00Z,29.1874,-90.6654,75.1,1111122 
LUMCON,ioos:station:LUMCON:105:1,2009-12-20T09:00:00Z,29.1874,-90.6654,80.9,1111122 
LUMCON,ioos:station:LUMCON:105:1,2009-12-20T10:00:00Z,29.1874,-90.6654,83.1,1111122 
LUMCON,ioos:station:LUMCON:105:1,2009-12-20T11:00:00Z,29.1874,-90.6654,83.6,1111122 
LUMCON,ioos:station:LUMCON:105:1,2009-12-20T12:00:00Z,29.1874,-90.6654,83.6,1111122 
LUMCON,ioos:station:LUMCON:105:1,2009-12-20T13:00:00Z,29.1874,-90.6654,81.9,1111122 
LUMCON,ioos:station:LUMCON:105:1,2009-12-20T14:00:00Z,29.1874,-90.6654,80.8,1111122 
LUMCON,ioos:station:LUMCON:105:1,2009-12-20T15:00:00Z,29.1874,-90.6654,74.9,1111122 
LUMCON,ioos:station:LUMCON:105:1,2009-12-20T16:00:00Z,29.1874,-90.6654,76.5,1111122 
LUMCON,ioos:station:LUMCON:105:1,2009-12-20T17:00:00Z,29.1874,-90.6654,75.0,1111122 
LUMCON,ioos:station:LUMCON:105:1,2009-12-20T18:00:00Z,29.1874,-90.6654,72.0,1111122 
LUMCON,ioos:station:LUMCON:105:1,2009-12-20T19:00:00Z,29.1874,-90.6654,70.6,1111122 
LUMCON,ioos:station:LUMCON:105:1,2009-12-20T20:00:00Z,29.1874,-90.6654,68.3,1111122 
LUMCON,ioos:station:LUMCON:105:1,2009-12-20T21:00:00Z,29.1874,-90.6654,67.4,1111122 
LUMCON,ioos:station:LUMCON:105:1,2009-12-20T22:00:00Z,29.1874,-90.6654,67.0,1111122 
LUMCON,ioos:station:LUMCON:105:1,2009-12-20T23:00:00Z,29.1874,-90.6654,68.8,1111122 
LUMCON,ioos:station:LUMCON:105:1,2009-12-21T00:00:00Z,29.1874,-90.6654,69.8,1111122 
LUMCON,ioos:station:LUMCON:105:1,2009-12-21T01:00:00Z,29.1874,-90.6654,74.2,1111122 
LUMCON,ioos:station:LUMCON:105:1,2009-12-21T02:00:00Z,29.1874,-90.6654,74.2,1111122 
LUMCON,ioos:station:LUMCON:105:1,2009-12-21T03:00:00Z,29.1874,-90.6654,77.9,1111122 
LUMCON,ioos:station:LUMCON:105:1,2009-12-21T04:00:00Z,29.1874,-90.6654,81.1,1111122 
LUMCON,ioos:station:LUMCON:105:1,2009-12-21T05:00:00Z,29.1874,-90.6654,80.0,1111122 
LUMCON,ioos:station:LUMCON:105:1,2009-12-21T06:00:00Z,29.1874,-90.6654,82.7,1111122 
LUMCON,ioos:station:LUMCON:105:1,2009-12-21T07:00:00Z,29.1874,-90.6654,85.0,1111122 
LUMCON,ioos:station:LUMCON:105:1,2009-12-21T08:00:00Z,29.1874,-90.6654,89.7,1111122 
LUMCON,ioos:station:LUMCON:105:1,2009-12-21T09:00:00Z,29.1874,-90.6654,90.9,1111122 
LUMCON,ioos:station:LUMCON:105:1,2009-12-21T10:00:00Z,29.1874,-90.6654,93.4,1111122 
LUMCON,ioos:station:LUMCON:105:1,2009-12-21T11:00:00Z,29.1874,-90.6654,91.5,1111122 
LUMCON,ioos:station:LUMCON:105:1,2009-12-21T12:00:00Z,29.1874,-90.6654,90.9,1111122 
LUMCON,ioos:station:LUMCON:105:1,2009-12-21T13:00:00Z,29.1874,-90.6654,89.7,1111122 
LUMCON,ioos:station:LUMCON:105:1,2009-12-21T15:00:00Z,29.1874,-90.6654,84.0,1111122 
LUMCON,ioos:station:LUMCON:105:1,2009-12-21T16:00:00Z,29.1874,-90.6654,85.7,1111122 
LUMCON,ioos:station:LUMCON:105:1,2009-12-21T20:00:00Z,29.1874,-90.6654,85.7,1111122 
LUMCON,ioos:station:LUMCON:105:1,2009-12-21T21:00:00Z,29.1874,-90.6654,73.7,1111122 
LUMCON,ioos:station:LUMCON:105:1,2009-12-21T22:00:00Z,29.1874,-90.6654,74.2,1111122 
LUMCON,ioos:station:LUMCON:105:1,2009-12-21T23:00:00Z,29.1874,-90.6654,77.8,1111122 
LUMCON,ioos:station:LUMCON:105:1,2009-12-22T00:00:00Z,29.1874,-90.6654,81.5,1111122 
LUMCON,ioos:station:LUMCON:105:1,2009-12-22T01:00:00Z,29.1874,-90.6654,82.0,1111122 
LUMCON,ioos:station:LUMCON:105:1,2009-12-22T02:00:00Z,29.1874,-90.6654,78.3,1111122 
LUMCON,ioos:station:LUMCON:105:1,2009-12-22T03:00:00Z,29.1874,-90.6654,75.2,1111122 
LUMCON,ioos:station:LUMCON:105:1,2009-12-22T04:00:00Z,29.1874,-90.6654,72.8,1111122 
LUMCON,ioos:station:LUMCON:105:1,2009-12-22T05:00:00Z,29.1874,-90.6654,75.3,1111122 
LUMCON,ioos:station:LUMCON:105:1,2009-12-22T06:00:00Z,29.1874,-90.6654,83.8,1111122 
LUMCON,ioos:station:LUMCON:105:1,2009-12-22T07:00:00Z,29.1874,-90.6654,87.7,1111122 
LUMCON,ioos:station:LUMCON:105:1,2009-12-22T08:00:00Z,29.1874,-90.6654,81.7,1111122 
LUMCON,ioos:station:LUMCON:105:1,2009-12-22T09:00:00Z,29.1874,-90.6654,80.6,1111122 
LUMCON,ioos:station:LUMCON:105:1,2009-12-22T10:00:00Z,29.1874,-90.6654,82.8,1111122 
LUMCON,ioos:station:LUMCON:105:1,2009-12-22T11:00:00Z,29.1874,-90.6654,86.1,1111122 
LUMCON,ioos:station:LUMCON:105:1,2009-12-22T12:00:00Z,29.1874,-90.6654,92.5,1111122 
LUMCON,ioos:station:LUMCON:105:1,2009-12-22T13:00:00Z,29.1874,-90.6654,94.3,1111122 
LUMCON,ioos:station:LUMCON:105:1,2009-12-22T14:00:00Z,29.1874,-90.6654,93.1,1111122 
LUMCON,ioos:station:LUMCON:105:1,2009-12-22T15:00:00Z,29.1874,-90.6654,89.5,1111122 
LUMCON,ioos:station:LUMCON:105:1,2009-12-22T16:00:00Z,29.1874,-90.6654,89.0,1111122 
LUMCON,ioos:station:LUMCON:105:1,2009-12-22T17:00:00Z,29.1874,-90.6654,88.4,1111122 
LUMCON,ioos:station:LUMCON:105:1,2009-12-22T18:00:00Z,29.1874,-90.6654,85.7,1111122 
LUMCON,ioos:station:LUMCON:105:1,2009-12-22T19:00:00Z,29.1874,-90.6654,85.1,1111122 
LUMCON,ioos:station:LUMCON:105:1,2009-12-22T20:00:00Z,29.1874,-90.6654,86.8,1111122 
LUMCON,ioos:station:LUMCON:105:1,2009-12-22T21:00:00Z,29.1874,-90.6654,85.7,1111122 
LUMCON,ioos:station:LUMCON:105:1,2009-12-22T22:00:00Z,29.1874,-90.6654,85.7,1111122 
LUMCON,ioos:station:LUMCON:105:1,2009-12-22T23:00:00Z,29.1874,-90.6654,88.5,1111122 
LUMCON,ioos:station:LUMCON:105:1,2009-12-23T00:00:00Z,29.1874,-90.6654,90.8,1111122 
LUMCON,ioos:station:LUMCON:105:1,2009-12-23T01:00:00Z,29.1874,-90.6654,90.8,1111122 
LUMCON,ioos:station:LUMCON:105:1,2009-12-23T02:00:00Z,29.1874,-90.6654,90.8,1111122 
LUMCON,ioos:station:LUMCON:105:1,2009-12-23T03:00:00Z,29.1874,-90.6654,90.8,1111122 
LUMCON,ioos:station:LUMCON:105:1,2009-12-23T04:00:00Z,29.1874,-90.6654,92.5,1111122 
LUMCON,ioos:station:LUMCON:105:1,2009-12-23T05:00:00Z,29.1874,-90.6654,94.4,1111122 
LUMCON,ioos:station:LUMCON:105:1,2009-12-23T06:00:00Z,29.1874,-90.6654,90.8,1111122 
LUMCON,ioos:station:LUMCON:105:1,2009-12-23T07:00:00Z,29.1874,-90.6654,87.4,1111122 
LUMCON,ioos:station:LUMCON:105:1,2009-12-23T08:00:00Z,29.1874,-90.6654,88.0,1111122 
LUMCON,ioos:station:LUMCON:105:1,2009-12-23T09:00:00Z,29.1874,-90.6654,89.7,1111122 
LUMCON,ioos:station:LUMCON:105:1,2009-12-23T10:00:00Z,29.1874,-90.6654,90.3,1111122 
LUMCON,ioos:station:LUMCON:105:1,2009-12-23T11:00:00Z,29.1874,-90.6654,90.9,1111122 
LUMCON,ioos:station:LUMCON:105:1,2009-12-23T12:00:00Z,29.1874,-90.6654,92.0,1111122 
LUMCON,ioos:station:LUMCON:105:1,2009-12-23T13:00:00Z,29.1874,-90.6654,92.6,1111122 
LUMCON,ioos:station:LUMCON:105:1,2009-12-23T14:00:00Z,29.1874,-90.6654,92.1,1111122 
LUMCON,ioos:station:LUMCON:105:1,2009-12-23T15:00:00Z,29.1874,-90.6654,91.5,1111122 
LUMCON,ioos:station:LUMCON:105:1,2009-12-23T16:00:00Z,29.1874,-90.6654,92.1,1111122 
LUMCON,ioos:station:LUMCON:105:1,2009-12-23T17:00:00Z,29.1874,-90.6654,90.4,1111122 
LUMCON,ioos:station:LUMCON:105:1,2009-12-23T18:00:00Z,29.1874,-90.6654,91.5,1111122 
LUMCON,ioos:station:LUMCON:105:1,2009-12-23T19:00:00Z,29.1874,-90.6654,92.7,1111122 
LUMCON,ioos:station:LUMCON:105:1,2009-12-23T20:00:00Z,29.1874,-90.6654,92.2,1111122 
LUMCON,ioos:station:LUMCON:105:1,2009-12-23T21:00:00Z,29.1874,-90.6654,94.5,1111122 
LUMCON,ioos:station:LUMCON:105:1,2009-12-23T22:00:00Z,29.1874,-90.6654,96.3,1111122 
LUMCON,ioos:station:LUMCON:105:1,2009-12-23T23:00:00Z,29.1874,-90.6654,95.1,1111122 
LUMCON,ioos:station:LUMCON:105:1,2009-12-24T00:00:00Z,29.1874,-90.6654,97.5,1111122 
LUMCON,ioos:station:LUMCON:105:1,2009-12-24T02:00:00Z,29.1874,-90.6654,96.9,1111122 
LUMCON,ioos:station:LUMCON:105:1,2009-12-24T03:00:00Z,29.1874,-90.6654,96.9,1111122 
LUMCON,ioos:station:LUMCON:105:1,2009-12-24T04:00:00Z,29.1874,-90.6654,96.9,1111122 
LUMCON,ioos:station:LUMCON:105:1,2009-12-24T18:00:00Z,29.1874,-90.6654,96.2,1111122 
LUMCON,ioos:station:LUMCON:105:1,2009-12-24T19:00:00Z,29.1874,-90.6654,94.3,1111122 
LUMCON,ioos:station:LUMCON:105:1,2009-12-24T20:00:00Z,29.1874,-90.6654,91.9,1111122 
LUMCON,ioos:station:LUMCON:105:1,2009-12-24T21:00:00Z,29.1874,-90.6654,88.4,1111122 
LUMCON,ioos:station:LUMCON:105:1,2009-12-24T22:00:00Z,29.1874,-90.6654,89.5,1111122 
LUMCON,ioos:station:LUMCON:105:1,2009-12-24T23:00:00Z,29.1874,-90.6654,91.4,1111122 
LUMCON,ioos:station:LUMCON:105:1,2009-12-25T00:00:00Z,29.1874,-90.6654,85.1,1111122 
LUMCON,ioos:station:LUMCON:105:1,2009-12-25T01:00:00Z,29.1874,-90.6654,75.1,1111122 
LUMCON,ioos:station:LUMCON:105:1,2009-12-25T02:00:00Z,29.1874,-90.6654,77.5,1111122 
LUMCON,ioos:station:LUMCON:105:1,2009-12-25T03:00:00Z,29.1874,-90.6654,80.5,1111122 
LUMCON,ioos:station:LUMCON:105:1,2009-12-25T04:00:00Z,29.1874,-90.6654,75.6,1111122 
LUMCON,ioos:station:LUMCON:105:1,2009-12-25T05:00:00Z,29.1874,-90.6654,76.4,1111122 
LUMCON,ioos:station:LUMCON:105:1,2009-12-25T06:00:00Z,29.1874,-90.6654,76.8,1111122 
LUMCON,ioos:station:LUMCON:105:1,2009-12-25T07:00:00Z,29.1874,-90.6654,81.4,1111122 